Location: D�pe
(52.6057°N, 8.1808°E)
Time: 07:17:53
(UTC+00:00)

CZ-2D R/B - Pass Details

Date: 29 October 2020
Orbit: 522 x 537 km, 97.4° (Epoch: 01 December)

Event Time Altitude Azimuth Distance (km) Brightness Sun altitude
Rises 17:21:57 0° 157° (SSE) 2,651 6.6 -12.6°
Reaches altitude 10° 17:24:03 10° 154° (SSE) 1,764 5.7 -12.9°
Maximum altitude 17:27:49 65° 73° (ENE) 583 3.1 -13.4°
Drops below altitude 10° 17:31:37 10° 352° (N) 1,774 6.0 -14.0°
Sets 17:33:44 0° 349° (N) 2,667 6.9 -14.3°
